Regional Weather Roundup
Issued by NWS Sioux Falls, SD

Home | Current Version | Previous Version | Text Only | Print | Product List | Glossary On
Versions: 1 2 3 4 5 6 7 8 9 10 11 12 13 14 15 16 17 18 19 20 21 22 23 24 25 26 27 28 29 30 31 32 33 34 35 36 37 38 39 40 41 42 43 44 45 46 47 48 49 50
000
ASUS43 KFSD 190002
RWRFSD

WEATHER ROUNDUP FOR SE SOUTH DAKOTA/SW MINNESOTA/NW IOWA
NATIONAL WEATHER SERVICE SIOUX FALLS SD
700 PM CDT SAT APR 18 2015

NOTE: "FAIR" INDICATES FEW OR NO CLOUDS BELOW 12,000 FEET WITH NO
SIGNIFICANT WEATHER AND OR OBSTRUCTIONS TO VISIBILITY.


SDZ038>040-050-052>070-190100-
SOUTHEAST SOUTH DAKOTA

CITY           SKY/WX    TMP DP  RH WIND       PRES   REMARKS
BROOKINGS      CLOUDY    57  55  94 SE15      29.87S
CHAMBERLAIN    NOT AVBL
HURON          CLOUDY    55  54  96 E5        29.84F FOG
6HR MIN TEMP:  54; 6HR MAX TEMP:  68; 6HR PCP:  0.23;

MADISON        MOCLDY    55  55 100 SE8       29.85F
MITCHELL       CLOUDY    59  56  89 E7        29.84S
6HR MIN TEMP:  53; 6HR MAX TEMP:  59; 6HR PCP:  0.21;

SIOUX FALLS    CLOUDY    58  55  90 E12       29.83F
6HR MIN TEMP:  58; 6HR MAX TEMP:  62; 6HR PCP:  0.08;

WINNER         FAIR      60  54  80 N10       29.82F
YANKTON        CLOUDY    61  55  82 E9        29.80F
$$

MNZ071-072-080-081-089-090-097-098-190100-
SOUTHWEST MINNESOTA

CITY           SKY/WX    TMP DP  RH WIND       PRES   REMARKS
FAIRMONT       CLOUDY    57  52  82 SE9       29.87F
JACKSON        RAIN      55  54  94 E8        29.87F
LUVERNE        LGT RAIN  57  54  88 SE6       29.85F
MARSHALL       CLOUDY    57  52  82 S7        29.87F
6HR MIN TEMP:  57; 6HR MAX TEMP:  73; 6HR PCP:  0.10;

MONTEVIDEO     LGT RAIN  63  52  67 S9        29.89R
PIPESTONE      LGT RAIN  55  54  94 SE9       29.85F
REDWOOD FALLS  LGT RAIN  60  55  83 SW13      29.89R
TRACY          LGT RAIN  58  56  94 E6        29.88F
WORTHINGTON    CLOUDY    55  54  94 SE8       29.87S
$$

IAZ001>003-012>014-020>022-031-032-NEZ013-014-SDZ071-190100-
NORTHWEST IOWA

CITY           SKY/WX    TMP DP  RH WIND       PRES   REMARKS
DENISON        CLOUDY    59  59 100 E8        29.81F
ESTHERVILLE    LGT RAIN  56  55  97 E3        29.86F
SIOUX CITY     CLOUDY    62  57  83 SE9       29.82S
6HR MIN TEMP:  59; 6HR MAX TEMP:  63; 6HR PCP:  0.09;

SPENCER        CLOUDY    59  56  89 E5        29.83F
6HR MIN TEMP:  57; 6HR MAX TEMP:  63; 6HR PCP:  0.45;

$$

ABBREVIATIONS USED IN REMARKS
   TC - TEMPERATURE IN CELSIUS
  WCI - WIND CHILL INDEX
   HX - HEAT INDEX
  VSB - VISIBILITY




USA.gov is the U.S. government's official web portal to all federal, state and local government web resources and services.